Time,TemperatureF,DewpointF,PressureIn,WindDirection,WindDirectionDegrees,WindSpeedMPH,WindSpeedGustMPH,Humidity,HourlyPrecipIn,Conditions,Clouds,dailyrainin,SoftwareType,DateUTC
2013-11-12 00:22:00,43.0,36.0,30.45,NNE,25,2.0,-999.0,77,-99.99,,,-99.99,,2013-11-12 06:22:00,
2013-11-12 00:52:00,42.0,34.0,30.47,North,354,2.0,-999.0,74,-99.99,,,-99.99,,2013-11-12 06:52:00,
2013-11-12 01:21:00,41.0,32.0,30.50,NW,319,1.0,-999.0,71,-99.99,,,-99.99,,2013-11-12 07:21:00,
2013-11-12 01:52:00,40.0,31.0,30.52,North,360,2.0,-999.0,69,-99.99,,,-99.99,,2013-11-12 07:52:00,
2013-11-12 02:21:00,39.0,29.0,30.54,North,6,2.0,-999.0,68,-99.99,,,-99.99,,2013-11-12 08:21:00,
2013-11-12 02:52:00,38.0,29.0,30.56,NNE,24,2.0,-999.0,69,-99.99,,,-99.99,,2013-11-12 08:52:00,
2013-11-12 03:21:00,36.0,26.0,30.58,NNW,339,2.0,-999.0,67,-99.99,,,-99.99,,2013-11-12 09:21:00,
2013-11-12 03:53:00,36.0,25.0,30.59,NNW,347,2.0,-999.0,63,-99.99,,,-99.99,,2013-11-12 09:53:00,
2013-11-12 04:23:00,34.0,22.0,30.61,North,4,2.0,-999.0,60,-99.99,,,-99.99,,2013-11-12 10:23:00,
2013-11-12 04:53:00,32.0,19.0,30.64,NW,323,2.0,-999.0,59,-99.99,,,-99.99,,2013-11-12 10:53:00,
2013-11-12 05:22:00,31.0,20.0,30.65,North,360,2.0,-999.0,62,-99.99,,,-99.99,,2013-11-12 11:22:00,
2013-11-12 05:52:00,30.0,19.0,30.68,NW,323,2.0,-999.0,64,-99.99,,,-99.99,,2013-11-12 11:52:00,
2013-11-12 06:21:00,30.0,19.0,30.69,North,357,1.0,-999.0,63,-99.99,,,-99.99,,2013-11-12 12:21:00,
2013-11-12 06:52:00,29.0,18.0,30.72,NNE,21,2.0,-999.0,64,-99.99,,,-99.99,,2013-11-12 12:52:00,
2013-11-12 07:22:00,29.0,18.0,30.72,North,360,2.0,-999.0,63,-99.99,,,-99.99,,2013-11-12 13:22:00,
2013-11-12 07:52:00,29.0,17.0,30.73,NNW,344,1.0,-999.0,61,-99.99,,,-99.99,,2013-11-12 13:52:00,
2013-11-12 08:22:00,30.0,18.0,30.73,NNE,14,1.0,-999.0,60,-99.99,,,-99.99,,2013-11-12 14:22:00,
2013-11-12 08:52:00,30.0,16.0,30.76,NNW,346,1.0,-999.0,55,-99.99,,,-99.99,,2013-11-12 14:52:00,
2013-11-12 09:21:00,30.0,17.0,30.76,North,360,1.0,-999.0,57,-99.99,,,-99.99,,2013-11-12 15:21:00,
2013-11-12 09:53:00,31.0,18.0,30.79,NNW,328,2.0,-999.0,57,-99.99,,,-99.99,,2013-11-12 15:53:00,
2013-11-12 10:23:00,31.0,17.0,30.79,NW,305,2.0,-999.0,56,-99.99,,,-99.99,,2013-11-12 16:23:00,
2013-11-12 10:53:00,32.0,16.0,30.79,NW,305,2.0,-999.0,52,-99.99,,,-99.99,,2013-11-12 16:53:00,
2013-11-12 11:22:00,33.0,16.0,30.78,NNE,24,1.0,-999.0,50,-99.99,,,-99.99,,2013-11-12 17:22:00,
2013-11-12 11:52:00,34.0,16.0,30.79,North,360,2.0,-999.0,47,-99.99,,,-99.99,,2013-11-12 17:52:00,
2013-11-12 12:23:00,35.0,16.0,30.78,NNW,343,2.0,-999.0,45,-99.99,,,-99.99,,2013-11-12 18:23:00,
2013-11-12 12:52:00,35.0,15.0,30.77,NW,308,3.0,-999.0,44,-99.99,,,-99.99,,2013-11-12 18:52:00,
2013-11-12 13:22:00,36.0,15.0,30.75,North,4,2.0,-999.0,41,-99.99,,,-99.99,,2013-11-12 19:22:00,
2013-11-12 13:52:00,38.0,15.0,30.74,ENE,58,2.0,-999.0,39,-99.99,,,-99.99,,2013-11-12 19:52:00,
2013-11-12 14:21:00,38.0,14.0,30.73,North,360,2.0,-999.0,37,-99.99,,,-99.99,,2013-11-12 20:21:00,
2013-11-12 14:52:00,39.0,15.0,30.72,West,280,2.0,-999.0,37,-99.99,,,-99.99,,2013-11-12 20:52:00,
2013-11-12 15:22:00,39.0,14.0,30.71,NW,304,2.0,-999.0,35,-99.99,,,-99.99,,2013-11-12 21:22:00,
2013-11-12 15:54:00,39.0,14.0,30.71,North,360,1.0,-999.0,35,-99.99,,,-99.99,,2013-11-12 21:54:00,
2013-11-12 16:24:00,39.0,14.0,30.70,North,360,1.0,-999.0,35,-99.99,,,-99.99,,2013-11-12 22:24:00,
2013-11-12 16:54:00,38.0,15.0,30.70,WNW,291,1.0,-999.0,38,-99.99,,,-99.99,,2013-11-12 22:54:00,
2013-11-12 17:23:00,37.0,14.0,30.70,NNW,337,1.0,-999.0,39,-99.99,,,-99.99,,2013-11-12 23:23:00,
2013-11-12 17:54:00,35.0,14.0,30.71,NNW,335,0.0,-999.0,41,-99.99,,,-99.99,,2013-11-12 23:54:00,
2013-11-12 18:22:00,35.0,15.0,30.70,NW,323,1.0,-999.0,44,-99.99,,,-99.99,,2013-11-13 00:22:00,
2013-11-12 18:52:00,34.0,14.0,30.71,NNW,339,0.0,-999.0,44,-99.99,,,-99.99,,2013-11-13 00:52:00,
2013-11-12 19:22:00,33.0,15.0,30.71,NNW,339,1.0,-999.0,46,-99.99,,,-99.99,,2013-11-13 01:22:00,
2013-11-12 19:52:00,33.0,15.0,30.71,NNW,343,0.0,-999.0,47,-99.99,,,-99.99,,2013-11-13 01:52:00,
2013-11-12 20:22:00,32.0,15.0,30.72,NNW,343,0.0,-999.0,50,-99.99,,,-99.99,,2013-11-13 02:22:00,
2013-11-12 20:52:00,31.0,16.0,30.72,NNW,343,0.0,-999.0,53,-99.99,,,-99.99,,2013-11-13 02:52:00,
2013-11-12 21:22:00,30.0,16.0,30.72,NNW,343,0.0,-999.0,56,-99.99,,,-99.99,,2013-11-13 03:22:00,
2013-11-12 21:54:00,29.0,16.0,30.71,NNW,343,0.0,-999.0,58,-99.99,,,-99.99,,2013-11-13 03:54:00,
2013-11-12 22:14:00,29.0,16.0,30.71,NNW,343,0.0,-999.0,58,-99.99,,,-99.99,,2013-11-13 04:14:00,
2013-11-12 22:23:00,29.0,17.0,30.71,NNW,343,0.0,-999.0,60,-99.99,,,-99.99,,2013-11-13 04:23:00,
2013-11-12 22:53:00,28.0,17.0,30.71,NNW,343,0.0,-999.0,62,-99.99,,,-99.99,,2013-11-13 04:53:00,
2013-11-12 23:23:00,28.0,16.0,30.71,NNW,343,0.0,-999.0,61,-99.99,,,-99.99,,2013-11-13 05:23:00,
2013-11-12 23:53:00,28.0,17.0,30.70,NNW,343,0.0,-999.0,62,-99.99,,,-99.99,,2013-11-13 05:53:00,